Home > Weather > Kugluktuk > Past weeks

Flag for Canada Past Weather in Kugluktuk, Nunavut, Canada — Yesterday and Last 2 Weeks

Now
39 °F

Fog.


Feels Like: 32 °F
Forecast: 38 / 55 °F
Wind: 10 mph from Southwest

Location: Coppermine

Current Time: Jul 27, 2016 at 5:46:00 AM

Latest Report: Jul 27, 2016 at 5:00 AM


Visibility: 15 mi

Pressure: 30.09 "Hg

Humidity: 93%

Dew Point: 37 °F

Location of KugluktukLocation

Past Weather in Kugluktuk — Graph

°F

Kugluktuk Temperature Yesterday

Maximum temperature yesterday: 54 °F (at 4:00 PM)
Minimum temperature yesterday: 39 °F (at 5:00 AM)
Average temperature yesterday: 48 °F

High & Low Weather Summary for the Past Weeks

 TemperatureHumidityPressure
High75 °F (Jul 12, 12:00 PM)100% (Jul 17, 11:00 PM)30.11 "Hg (Jul 17, 11:00 PM)
Low34 °F (Jul 21, 1:00 AM)27% (Jul 14, 3:00 PM)29.31 "Hg (Jul 22, 8:48 PM)
Average50 °F75%29.82 "Hg
* Reported Jul 12 4:00 AM — Jul 27 4:00 AM, Kugluktuk, Weather by CustomWeather, © 2016

Note: Actual official high and low records may vary slightly from our data, if they occured in-between our weather recording intervals... More about our weather records

Advertising

Kugluktuk Weather History for the Previous 24 Hours

Scroll right to see more
 ConditionsComfort  
Time TempWeatherWind HumidityBarometerVisibility
4:00 AM
Wed, Jul 27
39 °FFog.7 mph100%30.08 "Hg15 mi
3:00 AM41 °FFog.7 mph93%30.08 "Hg15 mi
2:00 AM43 °FFog.6 mph93%30.07 "Hg15 mi
1:00 AM46 °FPassing clouds.6 mph82%30.05 "Hg15 mi
12:00 AM46 °FPassing clouds.7 mph87%30.04 "Hg15 mi
11:00 PM
Tue, Jul 26
50 °FPassing clouds.3 mph82%30.03 "Hg15 mi
10:00 PM52 °FPassing clouds.No wind67%30.03 "Hg15 mi
9:00 PM54 °FPassing clouds.5 mph67%30.02 "Hg15 mi
8:00 PM54 °FPassing clouds.7 mph63%30.01 "Hg15 mi
7:00 PM54 °FPassing clouds.9 mph63%30.01 "Hg15 mi
6:00 PM52 °FPassing clouds.10 mph67%30.00 "Hg15 mi
5:00 PM52 °FPassing clouds.8 mph72%30.00 "Hg15 mi
4:00 PM54 °FScattered clouds.8 mph67%30.00 "Hg15 mi
3:00 PM52 °FScattered clouds.9 mph67%30.00 "Hg15 mi
2:00 PM50 °FBroken clouds.9 mph76%29.99 "Hg15 mi
1:00 PM50 °FBroken clouds.9 mph76%29.99 "Hg15 mi
12:00 PM48 °FBroken clouds.9 mph82%29.98 "Hg15 mi
11:00 AM46 °FPartly sunny.8 mph87%29.99 "Hg15 mi
10:00 AM46 °FPartly sunny.8 mph87%29.99 "Hg15 mi
9:00 AM46 °FPartly sunny.10 mph87%29.99 "Hg15 mi
8:00 AM46 °FPartly sunny.5 mph87%30.00 "Hg15 mi
7:00 AM43 °FScattered clouds.No wind93%29.99 "Hg15 mi
6:00 AM43 °FPartly sunny.2 mph87%30.00 "Hg15 mi
5:00 AM39 °FPassing clouds.2 mph93%30.00 "Hg15 mi
Weather by CustomWeather, © 2016

See weather overviewHow to use our weather pages